Simultaneous Nadir Overpasses (SNOs) Predictions

Prediction of SNOs between NOAA-20 and LANDSAT-8 Satellite Orbit:

Table of predicted SNOs for the next 14.0 days since TLE Epoch: 10/20/2018
Index Date (NOAA-20) Time (NOAA-20) Lat,Lon (NOAA-20) SZA (NOAA-20 ) Date (LANDSAT-8) Time (LANDSAT-8) Lat,Lon (LANDSAT-8) SZA (LANDSAT-8 ) Distance(km) Time Diff (sec)
1 10/20/2018 06:32:15 70.73, 77.13 80.97 10/20/2018 06:33:23 70.61, 78.77 80.84 61.99 68
2 10/20/2018 07:22:45 -70.01,-114.42 99.75 10/20/2018 07:23:02 -70.00,-114.47 99.76 2.06 17
3 10/20/2018 08:13:29 69.89, 53.07 80.15 10/20/2018 08:12:29 69.90, 53.03 80.15 1.95 60
4 10/22/2018 22:48:57 70.09,-166.09 81.27 10/22/2018 22:50:01 70.11,-166.08 81.29 1.70 64
5 10/22/2018 23:39:39 -70.00, 1.36 98.81 10/22/2018 23:39:31 -70.00, 1.40 98.81 1.40 8
6 10/23/2018 00:30:15 69.46, 169.47 80.67 10/23/2018 00:29:05 69.50, 168.36 80.71 43.63 70
7 10/25/2018 15:05:51 70.03, -50.23 82.15 10/25/2018 15:06:32 70.04, -50.30 82.15 2.89 41
8 10/25/2018 15:56:33 -69.94, 117.22 97.94 10/25/2018 15:56:02 -69.93, 117.18 97.95 2.15 31
9 10/28/2018 06:32:16 -70.88,-103.11 96.11 10/28/2018 06:33:23 -70.78,-100.97 96.20 78.78 67
10 10/28/2018 07:22:46 70.03, 65.55 83.05 10/28/2018 07:23:02 70.02, 65.55 83.04 1.44 16
11 10/28/2018 08:13:28 -69.94,-127.00 97.03 10/28/2018 08:12:32 -69.91,-126.96 97.06 3.04 56
12 10/30/2018 22:48:56 -70.09, 13.92 96.02 10/30/2018 22:50:05 -70.11, 13.91 96.00 2.03 69
13 10/30/2018 23:39:40 69.98,-178.60 83.88 10/30/2018 23:39:32 69.99,-178.61 83.90 1.91 8
14 10/31/2018 00:30:18 -69.67, -10.83 96.41 10/31/2018 00:29:05 -69.73, -11.34 96.36 20.86 73
15 11/02/2018 15:05:50 -70.09, 129.70 95.16 11/02/2018 15:06:34 -70.08, 129.75 95.17 2.20 44
16 11/02/2018 15:56:34 69.98, -62.83 84.74 11/02/2018 15:56:01 69.97, -62.77 84.73 2.68 33




NCC Satellite Simultaneous Nadir Overpasses (SNOs) Prediction Service
